Juneau, AK

5:46 PM AKDT on May 24, 2017 (GMT -0800)
Juneau International

Weather History for PAJN - February, 2013

Change the Weather History Date:

Monday, February 18, 2013

  Actual Average Record
Temperature  
Mean Temperature 35 °F 30 °F  
Max Temperature 36 °F 36 °F 50 °F (1977)
Min Temperature 33 °F 25 °F -8 °F (1949)
Degree Days  
Heating Degree Days 30 35  
Month to date heating degree days 528 637  
Since 1 July heating degree days 5782 5497  
Moisture  
Dew Point 33 °F    
Average Humidity 96    
Maximum Humidity 100    
Minimum Humidity 92    
Precipitation  
Precipitation 0.27 in 0.15 in 1.00 in (1990)
Month to date precipitation 5.25 2.69  
Year to date precipitation 12.95 8.04  
Snow  
Snow T in 0.50 in 9.90 in (1990)
Month to date snowfall 1.4 11.8  
Since 1 July snowfall 63.4 69.0  
Snow Depth 0.00 in    
Sea Level Pressure  
Sea Level Pressure 29.75 in    
Wind  
Wind Speed 6 mph (ESE)    
Max Wind Speed 22 mph    
Max Gust Speed 28 mph    
Visibility 8 miles    
Events Rain , Snow    
T = Trace of Precipitation, MM = Missing Value Source: NWS Daily Summary

Daily Weather History Graph

Daily Weather History Graph

Search for Another Location

Airport or City:

Trip Planner

Search our weather history database for the weather conditions in past years. The results will help you decide how hot, cold, wet, or windy it might be!

Date:

Astronomy

Feb. 18, 2013 Rise Set
Actual Time 7:21 AM AKST 5:03 PM AKST
Civil Twilight 6:40 AM AKST 5:44 PM AKST
Nautical Twilight 5:54 AM AKST 6:30 PM AKST
Astronomical Twilight 5:08 AM AKST 7:16 PM AKST
Moon 10:12 AM AKST (2/18) 2:49 AM AKST (2/18)
Length of Visible Light 11h 03m
Length of Day
9h 41m
First Quarter, 60% of the Moon is Illuminated
Feb 18
First Quarter
Feb 25
Full
Mar 4
Last Quarter
Mar 11
New
Mar 19
First Quarter

Hourly Weather History & Observations

Time (AKST) Temp. Windchill Dew Point Humidity Pressure Visibility Wind Dir Wind Speed Gust Speed Precip Events Conditions
12:53 AM 34.0 °F 23.0 °F 32.0 °F 92% 29.68 in 7.0 mi ESE 18.4 mph 24.2 mph 0.06 in Rain Light Rain
1:53 AM 34.0 °F 24.6 °F 32.0 °F 92% 29.68 in 8.0 mi East 13.8 mph - 0.05 in Rain Light Rain
3:53 AM 35.1 °F 27.4 °F 33.1 °F 92% 29.68 in 10.0 mi East 10.4 mph - 0.01 in Rain Light Rain
4:53 AM 35.1 °F 27.4 °F 33.1 °F 92% 29.68 in 10.0 mi East 10.4 mph - 0.00 in Rain Light Rain
5:53 AM 35.1 °F 27.4 °F 33.1 °F 92% 29.69 in 9.0 mi East 10.4 mph - 0.02 in Rain Light Rain
6:53 AM 34.0 °F 26.0 °F 33.1 °F 96% 29.70 in 6.0 mi East 10.4 mph - 0.04 in Rain Light Rain
7:53 AM 34.0 °F 26.0 °F 33.1 °F 96% 29.70 in 6.0 mi East 10.4 mph - 0.01 in Rain Light Rain
8:53 AM 35.1 °F 29.3 °F 33.1 °F 92% 29.72 in 6.0 mi ENE 6.9 mph - 0.01 in Rain Light Rain
9:53 AM 35.1 °F 30.1 °F 34.0 °F 96% 29.73 in 6.0 mi East 5.8 mph - 0.02 in Rain Light Rain
10:53 AM 35.1 °F 31.0 °F 33.1 °F 92% 29.74 in 6.0 mi WSW 4.6 mph - 0.01 in Rain Light Rain
11:53 AM 35.1 °F 31.0 °F 33.1 °F 92% 29.76 in 6.0 mi WSW 4.6 mph - 0.00 in Rain Light Rain
12:53 PM 36.0 °F - 33.1 °F 89% 29.76 in 6.0 mi Calm Calm - 0.01 in Rain Light Rain
1:53 PM 36.0 °F 31.1 °F 33.1 °F 89% 29.76 in 10.0 mi SW 5.8 mph - 0.00 in Rain Light Rain
2:53 PM 36.0 °F 32.1 °F 33.1 °F 89% 29.76 in 10.0 mi WSW 4.6 mph - 0.00 in Rain , Snow Light Rain
3:53 PM 36.0 °F - 33.1 °F 89% 29.77 in 10.0 mi Calm Calm - 0.00 in   Overcast
4:53 PM 36.0 °F 33.3 °F 33.1 °F 89% 29.78 in 10.0 mi West 3.5 mph - N/A   Overcast
5:53 PM 35.1 °F - 33.1 °F 92% 29.78 in 10.0 mi Calm Calm - 0.00 in Rain Light Rain
6:53 PM 35.1 °F - 33.1 °F 92% 29.80 in 10.0 mi Calm Calm - 0.00 in   Overcast
7:53 PM 35.1 °F - 34.0 °F 96% 29.81 in 10.0 mi Calm Calm - N/A   Overcast
8:53 PM 34.0 °F - 34.0 °F 100% 29.81 in 10.0 mi Calm Calm - 0.00 in Rain Light Rain
9:53 PM 34.0 °F - 34.0 °F 100% 29.83 in 8.0 mi Calm Calm - 0.01 in Rain , Snow Light Rain
10:30 PM 34.0 °F 31.0 °F 33.1 °F 96% 29.83 in 7.0 mi ENE 3.5 mph - 0.01 in Rain , Snow Light Rain
10:53 PM 34.0 °F 31.0 °F 33.1 °F 96% 29.84 in 7.0 mi East 3.5 mph - 0.01 in Rain , Snow Light Rain
11:53 PM 34.0 °F - 32.0 °F 92% 29.85 in 7.0 mi Calm Calm - 0.00 in Rain Light Rain